Regional Weather Roundup
Issued by NWS

Home | Current Version | Previous Version | Graphics & Text | Print | Product List | Glossary On
Versions: 1 2 3 4 5 6 7 8 9 10 11 12 13 14 15 16 17 18 19 20 21 22 23 24 25 26 27 28 29 30 31 32 33 34 35 36 37 38 39 40 41 42 43 44 45 46 47 48 49 50
877
ASUS45 KSLC 241410
RWRUT

UTAH REGIONAL WEATHER ROUNDUP
NATIONAL WEATHER SERVICE SALT LAKE CITY UT
800 AM MDT TUE APR 24 2018

UTZ001>011-023>025-241500-

NORTHERN UTAH

CITY           SKY/WX    TMP DP  RH WIND       PRES   REMARKS
BRIGHAM CITY   SUNNY     41  32  69 NW9       30.32R
HILL AFB       SUNNY     44  28  53 E18       30.29R
LOGAN          SUNNY     36  32  85 CALM      30.35R
OGDEN          SUNNY     44  30  57 W5        30.29R
SALT LAKE CITY MOSUNNY   45  36  70 W6        30.29R
TOOELE VALLEY  SUNNY     41  37  87 S5        30.31R
WENDOVER       SUNNY     49  27  42 CALM      30.32R
HEBER CITY       N/A     36  27  69 CALM      30.31S
WEST JORDAN    SUNNY     45  39  81 CALM      30.30R

$$

UTZ011>015-024>027-241500-

CENTRAL/NORTHEAST UTAH

CITY           SKY/WX    TMP DP  RH WIND       PRES   REMARKS
PROVO AIRPORT  SUNNY     45  28  51 CALM      30.29R
MOAB/CANYONLAN MOSUNNY   52  21  29 SW3       30.14R
DELTA          PTSUNNY   46  32  57 N10       30.27R
PRICE          MOSUNNY   50  13  22 CALM      30.22R
ROOSEVELT      SUNNY     43  28  56 S7        30.35R
VERNAL         SUNNY     43  26  51 NE17G25   30.34R

$$

UTZ013>016-019>022-027-241500-

SOUTHERN UTAH

CITY           SKY/WX    TMP DP  RH WIND       PRES   REMARKS
BRYCE CANYON   SUNNY     38  28  67 NW5       30.28R WCI  34
CEDAR CITY     SUNNY     42  30  62 NW5       30.23R
MILFORD        SUNNY     45  29  53 MISG      30.25R
ST GEORGE      SUNNY     63  28  26 NE9       30.09R
HANKSVILLE     SUNNY     52  18  25 CALM      30.19R
BLANDING         N/A     60  26  26 N5        30.23R

$$

REGIONAL REPORTS     COLORADO/ARIZONA

CITY           SKY/WX    TMP DP  RH WIND       PRES   REMARKS
CRAIG, CO      CLOUDY    34  28  79 SW9       30.35R WCI  27
GRAND JUNCTION PTSUNNY   56  30  37 E10       30.17R
RIFLE, CO      MOSUNNY   44  31  60 NW22G30   30.25R
MONTROSE, CO   SUNNY     51  34  52 NW3       30.22R
CORTEZ, CO     SUNNY     46  24  42 E3        30.16R
COLORADO CITY    N/A     45  28  53 CALM      30.17R
PAGE, AZ       SUNNY     64  24  21 NE3       30.09R
GRAND CANYON   MOSUNNY   40  19  43 CALM      30.23R
KINGMAN, AZ    MOSUNNY   64  23  21 SE10      30.05R
FLAGSTAFF, AZ  MOSUNNY   54  23  30 CALM      30.24R

$$

REGIONAL REPORTS    NEVADA/IDAHO/WYOMING

CITY           SKY/WX    TMP DP  RH WIND       PRES   REMARKS
LAS VEGAS, NV  MOSUNNY   71  26  18 S5        30.00R
ELY, NY        MOSUNNY   31  17  56 SE5       30.30R WCI  26
ELKO, NV       SUNNY     31  22  69 SW3       30.30R
POCATELLO, ID  SUNNY     36  29  75 N7        30.39R WCI  30
BURLEY, ID     SUNNY     40  29  64 E8        30.38R WCI  34
EVANSTON, WY   CLOUDY    31  25  78 NE15      30.36R WCI  20
ROCK SPRINGS,  CLOUDY    30  22  72 NE13      30.41R WCI  20
KEMMERER, WY   CLOUDY    32  23  69 NE8G17    30.40R WCI  25

$$




USA.gov is the U.S. government's official web portal to all federal, state and local government web resources and services.